Location: ?????????
(55.3556°N, 38.6137°E)
Time: 13:20:18
(UTC+00:00)

Daily predictions for brighter satellites

Satellite Brightness Start Highest point End
(mag) Time Altitude Azimuth Time Altitude Azimuth Time Altitude Azimuth
Cosmos 2061 Rocket 4.2 16:25:16 10° S 16:31:32 60° E 16:37:53 10° NNE
BREEZE-M DEB (TANK) 4.2 16:29:18 10° SW 16:31:42 30° SSE 16:36:13 10° E
Cosmos 1937 Rocket 3.9 16:28:12 10° NNW 16:33:27 70° WSW 16:38:42 10° SSE
Cosmos 1174 4.2 16:28:29 10° SW 16:33:52 82° SE 16:38:10 10° NE
USA 59 Rocket -0.2 16:30:27 10° NW 16:33:52 71° NE 16:38:22 10° ESE
COSMOS 2428 3.8 16:31:08 10° SSE 16:35:23 22° ESE 16:39:40 10° NE
Cosmos 2233 Rocket 4.0 16:29:28 10° S 16:35:28 59° E 16:41:31 10° NNE
Meteor 2-4 Rocket 4.0 16:30:30 10° NNW 16:36:28 85° W 16:42:24 10° S
Cosmos 1707 3.7 16:33:42 10° N 16:36:45 26° ENE 16:39:47 10° SE
Cosmos 2292 Rocket 4.1 16:33:10 10° NNW 16:37:48 59° W 16:41:22 10° S
CSL-04 Debris 4.3 16:32:27 10° SE 16:37:50 61° ENE 16:43:14 10° NNW
Cosmos 1943 Rocket 3.0 16:32:48 10° NNW 16:37:55 37° NE 16:43:02 10° ESE
USA 276 3.2 16:36:07 10° SW 16:38:32 25° S 16:40:51 10° ESE
CZ-4 R/B 1.2 16:35:35 10° SSE 16:39:23 87° E 16:43:17 10° NNW
Cosmos 468 Rocket 4.0 16:36:25 10° SSW 16:41:32 88° WNW 16:46:44 10° NNE
Lacrosse 4 Rocket 1.6 16:38:57 10° NW 16:43:19 84° SW 16:47:39 10° SE
ADEOS 4.1 16:39:51 10° S 16:45:01 63° WSW 16:50:14 10° NNW
KORONAS-FOTON 4.2 16:43:11 10° N 16:46:43 40° ENE 16:50:13 10° SE
Cosmos 841 Rocket 3.5 16:41:40 10° S 16:46:45 57° ESE 16:51:50 10° NNE
PAYLOAD B 4.3 16:41:21 10° SSE 16:46:58 90° WSW 16:52:37 10° NNW
Cosmos 1726 1.9 16:45:15 10° SSE 16:47:54 38° E 16:50:35 10° NNE
Cosmos 1356 Rocket 4.1 16:44:00 10° N 16:47:54 36° ENE 16:51:48 10° SE
Cosmos 1536 4.3 16:45:39 10° SE 16:48:05 16° E 16:50:32 10° NE
Tsikada Rocket 4.3 16:43:23 10° NNW 16:49:38 78° W 16:55:56 10° S
NOSS 2-1 (C) 3.2 16:46:51 10° NW 16:50:17 89° SW 16:54:48 10° SE
Cosmos 1328 Rocket 3.6 16:46:31 10° N 16:50:47 61° ENE 16:55:02 10° SSE
Cosmos 1125 Rocket 4.2 16:48:47 10° NNW 16:53:39 38° NE 16:58:18 11° ESE
Cosmos 2278 Rocket 2.4 16:48:04 10° NNW 16:53:41 57° NE 16:59:16 10° SE
SeaSat 1 3.8 16:49:54 10° NNE 16:54:32 43° NW 16:59:10 10° WSW
Terra 3.2 16:51:49 10° ESE 16:55:27 23° NE 16:59:06 10° N
Cosmos 1674 2.3 16:53:53 10° N 16:57:15 71° ENE 17:00:35 10° SSE
Meteor 1-4 Rocket 2.2 16:55:09 10° N 16:57:45 43° ENE 17:00:18 10° SSE
Cosmos 540 Rocket 4.1 16:53:46 10° SW 16:58:48 61° WNW 17:03:53 10° NNE
Iridium 4 Rocket 3.0 16:55:31 10° N 16:59:51 86° W 17:04:00 10° S
CZ-4B R/B 3.2 16:55:04 10° SSE 17:00:34 89° ENE 17:06:00 10° NNW
Cosmos 1743 2.4 16:57:17 10° S 17:00:50 69° E 17:04:25 10° NNE
Cosmos 2016 Rocket 4.3 16:55:18 10° SSW 17:01:23 73° WNW 17:07:31 10° N
ERS-1 Rocket 3.9 16:59:44 11° ESE 17:03:49 31° ENE 17:08:12 10° N
TSX-5 3.6 17:01:53 10° NW 17:05:02 61° WSW 17:08:08 10° SSE
USA 308 2.7 17:04:35 10° SW 17:05:01 11° SSW 17:05:01 11° SSW
CZ-4B R/B 3.7 17:03:19 10° S 17:07:01 51° W 17:10:56 10° NNW
ATLAS 2AS CENTAUR R/B 3.2 17:00:12 10° WSW 17:07:24 67° NNW 17:14:20 10° NE
Genesis I 2.8 17:06:07 10° SW 17:09:34 77° SE 17:13:05 10° NE
SPOT 5 3.2 17:06:02 11° SE 17:10:25 45° ENE 17:14:43 10° N
CARTOSAT-1 3.8 17:07:04 10° S 17:11:19 71° WSW 17:15:35 10° NNW
USA 290 2.4 17:08:35 10° NNW 17:11:49 58° ENE 17:14:16 16° SE
MOS 1-B 4.4 17:10:33 10° SSE 17:16:21 88° WSW 17:22:12 10° NNW
Cosmos 2360 Rocket 2.5 17:12:49 10° SW 17:18:28 71° NW 17:24:08 10° NNE
Okean 3 Rocket 4.1 17:15:13 10° SSE 17:19:21 37° E 17:23:29 10° NNE
Okean O Rocket 1.6 17:17:59 10° SSE 17:22:26 90° SE 17:26:54 10° NNW
NOSS 2-1 (E) 3.9 17:22:46 10° WNW 17:26:18 54° SW 17:30:05 15° SSE
Resurs 01 Rocket 2.4 17:22:38 10° S 17:26:58 53° W 17:31:20 10° NNW
Cosmos 2237 Rocket 3.3 17:23:14 11° SSE 17:27:16 23° ESE 17:31:32 10° NE
Cosmos 2322 Rocket 3.1 17:21:49 10° SW 17:27:25 55° NW 17:33:03 10° NNE
ACS3 Solar Sail 1.9 17:21:15 10° SSE 17:27:39 83° ENE 17:34:05 10° NNW
Cosmos 1340 3.2 17:26:09 10° SSW 17:29:22 51° WNW 17:32:36 10° N
IKONOS-2 4.5 17:25:19 10° NNE 17:29:27 58° ESE 17:33:32 10° S
USA 186 3.5 17:27:56 10° SSW 17:30:53 34° W 17:33:53 10° NNW
Helios 1A 3.8 17:27:01 10° N 17:31:00 53° WNW 17:34:57 10° SW
MOS 1 Rocket 3.7 17:27:39 16° SE 17:31:30 53° ENE 17:36:36 10° N
Cosmos 1814 Rocket 4.2 17:27:51 10° S 17:32:58 50° ESE 17:38:03 10° NE
Cosmos 2333 Rocket 2.8 17:29:27 10° SW 17:35:11 61° NW 17:40:56 10° NNE
NOSS 2-1 (D) 4.2 17:32:53 10° WNW 17:36:20 44° SW 17:39:51 15° SSE
Cosmos 1515 Rocket 3.4 17:32:24 10° N 17:36:46 81° E 17:40:29 14° SSE
Cosmos 2344 4.4 17:31:01 10° W 17:38:03 50° N 17:46:13 10° ENE
Okean-O 2.5 17:34:45 14° SSE 17:38:29 80° ENE 17:42:56 10° NNW
Cosmos 2219 Rocket 2.3 17:33:40 10° SW 17:39:22 84° NW 17:45:05 10° NNE
BlueWalker 3 3.1 17:36:06 10° W 17:39:27 30° SSW 17:41:17 20° SSE
MetOp-B 4.1 17:36:23 14° SSE 17:40:58 75° ENE 17:46:21 10° NNW
CSL-04 Rocket 4.4 17:37:54 10° S 17:43:09 52° W 17:48:23 10° NNW
Sich 1 3.9 17:43:47 25° ESE 17:45:00 29° E 17:48:43 10° NNE
USA 245 3.6 17:45:40 22° NE 17:45:40 22° NE 17:47:13 10° N
USA 267 3.3 17:41:39 18° ESE 17:46:42 86° SSW 17:53:18 10° WNW
Cosmos 1805 4.3 17:46:41 24° E 17:46:42 24° E 17:49:42 10° NE
SL-16 R/B 4.0 17:42:39 10° WSW 17:47:49 34° NW 17:52:59 10° NNE
Cosmos 1842 4.0 17:46:24 10° NNW 17:49:52 46° W 17:53:21 10° S
Cosmos 2369 Rocket 3.3 17:49:31 10° NNW 17:54:43 34° NE 17:58:08 19° E
Cosmos 1980 4.2 17:50:31 10° S 17:55:38 36° ESE 18:00:48 10° NE
Meteor 1-13 Rocket 4.3 17:49:45 10° NNW 17:55:44 89° W 18:00:34 16° SSE
IRS-1C Rocket 4.1 17:52:38 21° SSE 17:56:11 72° ENE 18:01:27 10° NNW
DELTA 2 DEB (DPAF) 4.0 17:52:31 10° NNE 17:56:38 55° ESE 17:59:32 18° S
Cosmos 1766 Rocket 4.0 17:52:48 10° SSW 17:57:06 62° WNW 18:01:29 10° N
Cosmos 2298 Rocket 4.2 17:53:16 10° NNW 17:58:33 60° ENE 18:01:17 28° SE
Cosmos 1500 Rocket 4.0 17:57:22 29° SE 17:59:03 42° E 18:03:10 10° NNE
Cosmos 2322 3.6 17:54:16 10° SSW 17:59:55 84° ESE 18:05:37 10° NE
USA 32 4.0 17:54:44 10° N 17:59:59 67° E 18:03:12 24° SSE
Cosmos 1428 Rocket 4.4 17:56:28 10° N 18:02:37 78° ENE 18:06:58 20° SSE
SWARM A 4.3 18:00:33 19° S 18:02:56 83° W 18:06:29 10° N
Cosmos 1743 Rocket 4.1 18:02:37 32° ESE 18:03:25 35° E 18:07:23 10° NNE
Cosmos 2150 Rocket 4.1 17:58:36 10° NNW 18:03:47 64° ENE 18:06:16 30° SE
Spot 2 Rocket 3.6 18:01:44 28° SE 18:04:18 61° ENE 18:09:17 10° N
In-Cosmos 22 4.4 18:01:02 10° NNW 18:06:47 73° W 18:11:29 15° S
NOSS 3-4 (A) 4.0 18:02:05 10° NW 18:08:22 60° NNE 18:13:10 22° E
NOSS 3-4 (C) 4.0 18:02:11 10° NW 18:08:28 59° NNE 18:13:16 22° E
Meteor 2-10 4.1 18:03:54 10° S 18:09:25 72° E 18:15:07 10° NNE
Cosmos 1315 Rocket 2.8 18:07:20 10° NNW 18:11:19 82° WSW 18:13:04 32° S
Cosmos 1707 4.1 18:08:22 10° NNW 18:11:36 32° W 18:14:39 11° SSW
USA 276 3.8 18:09:54 10° WSW 18:11:16 19° SW 18:11:16 19° SW
Cosmos 1570 Rocket 4.3 18:09:36 23° SSE 18:12:31 44° ESE 18:17:31 10° NE
CZ-4 R/B 4.3 18:12:48 10° WSW 18:14:32 13° W 18:16:16 10° WNW
Nadezhda 4 Rocket 4.2 18:09:13 10° NNW 18:15:25 69° W 18:21:01 13° S
Cosmos 2195 Rocket 4.4 18:09:17 10° N 18:15:28 84° E 18:19:24 24° SSE
Cosmos 1408 Rocket 3.4 18:13:30 24° S 18:16:07 74° E 18:20:32 10° NNE
Cosmos 1092 Rocket 4.0 18:11:12 10° N 18:17:32 75° ENE 18:21:13 27° SSE
Cosmos 1733 2.9 18:15:43 26° SSW 18:17:32 79° WNW 18:21:01 10° N
Meteor 1-23 Rocket 4.1 18:12:16 10° NNW 18:17:55 86° ENE 18:21:06 27° SSE
COSMOS 2428 2.7 18:13:13 10° SSW 18:18:57 88° WNW 18:24:45 10° NE
Cosmos 1818 3.6 18:15:11 10° SW 18:20:41 85° NW 18:26:13 10° NE
Lacrosse 4 Rocket 4.0 18:18:16 10° WNW 18:20:54 16° WSW 18:23:31 10° SW
Cosmos 1943 Rocket 2.4 18:16:32 10° NW 18:21:59 62° WSW 18:24:57 27° S
Cosmos 1975 3.5 18:22:48 34° ENE 18:22:48 34° ENE 18:25:56 10° NNE
USA 59 Rocket 1.8 18:20:04 10° WNW 18:23:12 24° SW 18:25:31 17° SSW
Cosmos 1536 3.2 18:20:01 12° SSW 18:23:32 61° WNW 18:27:21 10° N
SL-16 R/B 3.8 18:25:29 18° E 18:25:29 18° E 18:27:59 10° NE
Cosmos 2026 Rocket 3.9 18:18:06 10° N 18:24:27 84° ENE 18:27:59 28° SSE
OPS 6432 4.0 18:23:57 10° NW 18:27:16 86° NE 18:27:20 85° E
Cosmos 1464 Rocket 4.2 18:22:55 10° SSW 18:29:13 73° WNW 18:35:37 10° N
Okean 1-7 4.1 18:28:34 10° N 18:32:23 29° ENE 18:32:39 29° ENE
Terra 1.9 18:30:28 32° S 18:32:37 73° WSW 18:37:21 10° NNW
SL-14 R/B 3.1 18:29:21 10° NNW 18:33:09 79° W 18:33:54 55° S
Meteor 1-11 Rocket 3.7 18:27:43 10° SSW 18:33:23 84° WNW 18:38:59 10° NNE
CRYOSAT 2 4.4 18:29:11 10° N 18:34:07 83° W 18:36:55 26° SSW
Cosmos 158 Rocket 3.8 18:33:42 42° SSE 18:34:57 55° ESE 18:39:43 10° NE
Cosmos 1634 Rocket 4.1 18:32:27 33° SSE 18:35:11 57° E 18:41:22 10° NNE
Cosmos 1125 Rocket 4.2 18:30:50 10° NW 18:35:50 48° WSW 18:38:31 25° S
Ariane Rocket 2.9 18:34:38 39° SSE 18:36:35 89° E 18:41:42 10° NNW
Cosmos 2278 Rocket 3.4 18:32:27 10° NW 18:37:35 36° WSW 18:41:07 18° SSW
SPOT 3 Rocket 3.5 18:36:39 39° SSE 18:38:38 89° ENE 18:43:49 10° NNW
Cosmos 1805 Rocket 3.4 18:37:26 45° S 18:38:42 81° ESE 18:43:04 10° NNE
ERS-1 Rocket 3.5 18:39:39 26° S 18:42:21 56° W 18:47:18 10° NNW
Meteor 2-9 Rocket 4.1 18:38:56 17° SSW 18:43:11 82° WNW 18:48:40 10° NNE
Cosmos 1862 Rocket 3.5 18:42:07 10° N 18:46:29 63° ENE 18:46:56 58° ESE
Cosmos 2034 Rocket 4.1 18:41:54 11° SSW 18:47:54 76° WNW 18:54:08 10° N
Okean 3 3.4 18:44:00 10° N 18:48:07 60° ENE 18:48:15 60° E
SPOT 5 4.3 18:45:10 14° SSW 18:48:35 31° W 18:52:39 10° NNW
Celestis-02/Orion 38 4.4 18:45:42 10° NE 18:50:51 65° ESE 18:52:45 38° S
Cosmos 1707 Rocket 3.4 18:47:18 10° N 18:51:48 78° ENE 18:52:21 66° SE
USA 215 3.4 18:45:59 10° ENE 18:52:13 44° SE 18:58:25 10° SSW
Cosmos 1633 Rocket 4.0 18:53:17 34° ENE 18:53:17 34° ENE 18:56:33 10° NNE
Cosmos 2208 Rocket 3.9 18:55:24 43° S 18:57:08 71° ESE 19:02:28 10° NNE
NOSS 0 Rocket 4.0 18:51:17 10° SW 18:57:33 83° NW 19:03:51 10° NE
MetOp-A 3.8 18:58:35 55° E 18:58:58 58° ENE 19:03:37 10° N
Okean O Rocket 4.3 18:56:46 10° WSW 18:59:21 15° W 19:01:56 10° NW
ATLAS 2AS CENTAUR R/B 3.8 18:52:37 10° WNW 18:59:21 43° N 19:05:51 10° ENE
Cosmos 1666 Rocket 4.0 19:00:46 47° ENE 19:00:46 47° ENE 19:04:29 10° NNE
Landsat 4 4.4 19:01:44 42° NNE 19:01:44 42° NNE 19:04:17 10° N
Meteor 1-21 4.5 18:57:27 10° NNW 19:03:08 67° W 19:05:22 37° SSW
Cosmos 2360 Rocket 4.4 18:58:49 10° W 19:03:27 25° NNW 19:08:05 10° NNE
Cosmos 1656 Rocket 3.6 18:57:54 10° NNW 19:03:39 88° ENE 19:05:00 54° SE
Cosmos 773 Rocket 4.2 19:06:05 52° E 19:06:05 52° E 19:11:02 10° NE
Cosmos 2228 Rocket 3.2 19:03:55 10° NNW 19:08:29 73° W 19:09:07 62° SSW
Aureole 3 Rocket 4.3 19:02:31 10° SSW 19:09:41 62° WNW 19:14:49 10° N
Cosmos 2237 Rocket 2.1 19:05:01 10° SW 19:10:41 85° NW 19:16:21 10° NNE
Cosmos 2297 3.6 19:05:03 10° NW 19:10:43 89° ENE 19:11:54 58° SE
ACS3 Solar Sail 3.7 19:07:20 10° SW 19:12:29 25° W 19:17:39 10° NNW
Cosmos 1441 Rocket 4.2 19:13:49 37° NNE 19:13:49 37° NNE 19:16:07 10° NNE
ARIANE 5 R/B 3.3 19:19:16 43° NE 19:19:16 43° NE 19:23:09 10° N
Cosmos 1805 4.4 19:21:00 34° W 19:21:35 36° WNW 19:25:02 10° N
NOSS 3-3 (C) 4.0 19:22:06 52° ESE 19:22:06 52° ESE 19:28:00 10° NE
Sich 1 4.2 19:20:26 26° WSW 19:22:16 40° WNW 19:26:22 10° N
CZ-4C R/B 4.1 19:19:29 10° N 19:23:05 46° WNW 19:23:38 43° W
Cosmos 2279 Rocket 3.9 19:22:18 51° S 19:24:01 81° E 19:30:17 10° NNE
Cosmos 2219 Rocket 4.2 19:19:15 10° W 19:24:07 28° NNW 19:28:59 10° NNE
USA 267 3.6 19:29:00 42° S 19:30:10 46° SW 19:36:27 10° WNW
NOSS 3-3 (A) 3.7 19:38:26 67° SSE 19:38:43 68° SE 19:45:20 10° NE
Cosmos 2369 Rocket 2.1 19:33:32 10° NW 19:39:16 75° WSW 19:39:53 67° SSW
Cosmos 1980 4.2 19:33:55 10° SW 19:39:31 58° NW 19:45:10 10° NNE
Okean 2 4.0 19:38:24 10° NNW 19:41:41 51° NW 19:41:41 51° NW
SL-08 ROCKET BODY 4.4 19:42:37 10° NNW 19:48:51 83° W 19:49:53 64° S
Cosmos 192 4.4 19:44:13 10° NNW 19:48:53 72° W 19:48:53 72° W
SL-24 DEB 4.5 19:48:25 10° N 19:52:12 61° NNE 19:52:12 61° NNE
Cosmos 2344 4.1 19:46:17 10° WNW 19:53:48 63° NNE 20:00:25 21° E
Cosmos 1975 4.4 19:57:50 28° WNW 19:58:11 28° WNW 20:01:35 10° N
ATLAS CENTAUR R/B 3.9 20:01:59 11° NE 20:01:59 11° NE 20:02:10 10° NE
NOSS 3-4 (A) 3.9 19:52:56 10° NW 19:59:28 60° SW 20:00:35 55° SSW
NOSS 3-4 (C) 3.9 19:53:02 10° NW 19:59:34 61° SW 20:00:41 55° SSW
Cosmos 1607 4.0 20:00:25 60° ESE 20:00:25 60° ESE 20:06:17 10° NE
Cosmos 1943 Rocket 4.4 20:02:15 10° WNW 20:04:37 13° W 20:06:27 11° WSW
RESURS DK-1 4.5 20:03:00 10° NNW 20:06:06 20° NNE 20:06:43 20° NE
SL-16 R/B 2.0 20:07:19 86° SE 20:07:20 86° ESE 20:13:02 10° NE
ASTEX 1 3.5 20:09:36 70° NNE 20:09:36 70° NNE 20:13:59 10° N
Okean 1-7 4.1 20:05:41 10° NNW 20:09:11 39° WNW 20:09:11 39° WNW
Cosmos 2266 Rocket 4.2 20:03:49 10° NNW 20:09:56 62° W 20:10:56 55° SW
Meteor 2-5 Rocket 3.8 20:04:31 10° N 20:10:28 67° ENE 20:10:47 66° E
Terra 4.3 20:09:10 11° WSW 20:11:03 13° W 20:13:14 10° NW
Cosmos 2056 Rocket 4.1 20:09:58 10° NNW 20:15:02 47° NE 20:15:12 47° ENE
Cosmos 2263 4.5 20:09:58 10° NW 20:15:30 56° WSW 20:15:30 56° WSW
ALOS 2 3.4 20:25:26 49° N 20:25:26 49° N 20:28:47 10° NNW
Meteor 1-22 Rocket 4.5 20:30:04 58° ENE 20:30:04 58° ENE 20:35:03 10° NNE
Cosmos 1633 Rocket 4.4 20:30:16 33° WNW 20:30:16 33° WNW 20:34:16 10° N
Cosmos 1655 Rocket 4.1 20:24:05 10° NNW 20:30:23 65° W 20:31:03 61° SW
Meteor 1-24 Rocket 3.7 20:26:29 10° NNW 20:32:33 90° N 20:32:38 88° SSE
H-2A R/B 3.6 20:34:25 43° N 20:34:25 43° N 20:37:19 10° NNW
Cosmos 1943 3.9 20:34:42 43° ENE 20:34:42 43° ENE 20:38:51 10° NE
Nadezhda 2 Rocket 4.4 20:28:58 10° N 20:35:22 75° ENE 20:35:46 72° ESE
USA 215 3.1 20:29:08 10° ENE 20:35:43 85° SSE 20:42:18 10° WSW
Cosmos 1244 Rocket 4.3 20:37:16 10° N 20:43:30 87° E 20:43:41 84° SE
Cosmos 1553 Rocket 4.3 20:45:06 54° E 20:45:06 54° E 20:51:08 10° NNE
EO 1 Delta rocket 4.5 20:41:00 10° N 20:45:09 50° NW 20:45:09 50° NW
Cosmos 1538 Rocket 4.3 20:49:11 63° NE 20:49:11 63° NE 20:53:43 10° NNE
Cosmos 1697 Rocket 4.1 20:44:15 10° NNW 20:49:22 33° NE 20:51:36 25° ENE
Cosmos 1420 Rocket 4.2 20:44:23 10° NNW 20:48:48 65° NNW 20:48:48 65° NNW
ATLAS 2AS CENTAUR R/B 3.3 20:44:41 10° NW 20:51:31 53° NNE 20:56:21 19° E
Meteor 2-10 Rocket 3.8 20:54:31 66° NNE 20:54:31 66° NNE 20:59:12 10° NNE
Cosmos 2237 Rocket 4.0 20:50:42 10° W 20:55:31 28° NNW 21:00:22 10° NNE
ARIANE 5 R/B 4.3 20:56:43 26° WNW 20:56:43 26° WNW 20:59:23 10° NNW
Cosmos 1656 3.9 20:54:19 10° NNW 21:00:02 63° NE 21:00:10 63° ENE
Cosmos 724 4.4 21:11:49 65° WNW 21:12:17 68° NW 21:18:07 10° NE
NOSS 3-3 (C) 4.4 21:09:29 29° W 21:12:34 59° NNW 21:19:33 10° NE
Cosmos 1680 Rocket 4.4 21:14:38 41° ENE 21:14:38 41° ENE 21:18:29 10° NE
Cosmos 1371 Rocket 4.5 21:10:22 10° NNW 21:14:26 54° NW 21:14:26 54° NW
Cosmos 2369 Rocket 4.2 21:18:50 10° WNW 21:21:39 17° W 21:21:39 17° W
Meteor 1-12 Rocket 4.3 21:26:29 75° NW 21:26:29 75° NW 21:31:50 10° NNE
Cosmos 1953 4.3 21:30:32 26° NNE 21:30:32 26° NNE 21:32:24 10° NNE
H-2A R/B 3.8 21:26:09 10° NNE 21:28:45 27° ENE 21:28:45 27° ENE
ATLAS CENTAUR R/B 3.3 21:36:42 26° N 21:36:42 26° N 21:39:37 10° NE
S3M 4.0 21:37:11 67° E 21:37:11 67° E 21:43:17 10° NNE
SL-19 R/B 4.3 21:37:16 10° NNE 21:42:36 78° ENE 21:42:36 78° ENE
RESURS DK-1 4.2 21:40:19 10° NW 21:42:14 26° NNW 21:42:14 26° NNW
Cosmos 1745 Rocket 3.9 21:38:16 10° NNW 21:44:30 72° W 21:44:30 72° W
Cosmos 1980 Rocket 3.4 21:42:10 10° NNW 21:47:26 39° NE 21:50:14 24° E
SL-16 R/B 3.8 21:49:08 19° W 21:52:07 30° NW 21:57:07 10° NNE
Cosmos 1452 Rocket 3.7 21:48:07 10° NNW 21:52:48 68° N 21:52:48 68° N
Cosmos 2112 Rocket 4.2 21:56:51 68° NE 21:56:51 68° NE 22:01:31 10° NNE
Cosmos 1331 Rocket 4.2 21:52:12 10° NNW 21:56:50 68° N 21:56:50 68° N
CZ-3B R/B 3.4 21:39:39 10° WNW 21:57:55 72° SSW 21:58:52 63° SSE
CZ-2C R/B 3.7 21:59:29 33° E 22:00:39 37° ENE 22:05:23 10° N
IDEFIX/ARIANE 42P 4.4 21:57:48 10° NE 22:01:36 20° E 22:02:12 19° E
Cosmos 2360 4.3 21:56:19 10° NW 22:01:27 71° NW 22:01:27 71° NW
Cosmos 1603 3.8 22:04:06 66° WNW 22:04:11 66° NW 22:09:51 10° NNE
USA 281 4.0 22:01:01 19° ESE 22:05:35 49° NE 22:11:52 10° NNW
Cosmos 1417 Rocket 4.4 22:07:36 70° W 22:07:56 72° WNW 22:14:18 10° N
In-Cosmos 22 Rocket 4.2 22:02:40 10° NNW 22:08:00 79° NW 22:08:00 79° NW
Cosmos 2344 4.0 22:00:34 10° NW 22:08:28 61° SW 22:10:20 53° S
Cosmos 2315 Rocket 3.8 22:09:52 76° SE 22:10:10 79° E 22:16:24 10° NNE
Cosmos 1110 Rocket 4.4 22:06:01 10° NNW 22:10:06 55° NW 22:10:06 55° NW
Cosmos 883 Rocket 4.3 22:11:20 83° SSE 22:11:33 85° E 22:17:43 10° NNE
Meteor 1-16 Rocket 4.3 22:14:29 60° NW 22:14:29 60° NW 22:19:24 10° N
Cosmos 1943 4.1 22:16:28 38° WNW 22:17:34 42° NW 22:22:58 10° NNE
USA 215 3.3 22:12:12 10° E 22:18:47 78° N 22:25:20 10° W
Cosmos 2154 Rocket 4.5 22:14:34 10° N 22:20:40 54° ENE 22:22:22 42° ESE
Cosmos 1908 Rocket 4.4 22:22:57 50° N 22:22:57 50° N 22:26:20 10° N
Cosmos 1833 Rocket 3.5 22:24:24 40° ESE 22:24:24 40° ESE 22:29:30 10° NE
ARIANE 6 FM1 Upper Stage 3.8 22:26:27 42° NE 22:26:27 42° NE 22:29:24 10° NE
Resurs 1-4 Rocket 3.8 22:24:10 10° NE 22:28:12 22° E 22:29:27 20° ESE
Cosmos 921 Rocket 3.8 22:34:26 50° NE 22:34:26 50° NE 22:37:47 10° NNE
Cosmos 1709 Rocket 4.4 22:27:43 10° NNW 22:33:47 49° W 22:33:49 49° W
Cosmos 1697 Rocket 2.7 22:28:12 10° NW 22:33:15 68° WNW 22:33:15 68° WNW
Cosmos 1782 Rocket 4.1 22:38:46 57° NNE 22:38:46 57° NNE 22:42:20 10° NNE
Cosmos 494 Rocket 4.0 22:39:31 80° N 22:39:31 80° N 22:44:30 10° NNE
ATLAS 2AS CENTAUR R/B 2.5 22:35:56 10° NW 22:42:49 73° SW 22:43:40 65° S
Cosmos 2322 Rocket 4.3 22:40:12 10° NNW 22:45:00 26° NNE 22:49:46 10° E
Cosmos 2074 Rocket 3.8 22:44:37 10° NNW 22:50:53 87° W 22:51:48 67° S
Cosmos 1992 Rocket 4.3 22:46:47 10° NNW 22:52:00 63° ENE 22:53:23 46° ESE
Cosmos 2369 3.9 22:47:11 10° NNW 22:52:53 67° NE 22:55:37 31° SE
COBE Rocket 4.1 22:48:35 10° N 22:52:58 61° NW 22:52:58 61° NW
Cosmos 2333 Rocket 4.3 22:48:33 10° NNW 22:53:21 26° NNE 22:58:08 10° E
Meteor 1-11 4.5 22:47:51 10° NNW 22:53:12 54° W 22:53:12 54° W
Cosmos 1680 Rocket 4.4 22:54:53 36° WNW 22:55:36 38° NW 23:00:33 10° NNE
Cosmos 2082 Rocket 3.8 22:55:04 21° SE 22:56:28 23° ESE 23:00:47 10° NE
Nimbus 7 Rocket 4.3 22:58:33 10° NNE 23:04:25 72° WNW 23:05:15 63° WSW
Cosmos 1953 4.4 23:05:32 19° NW 23:05:32 19° NW 23:07:34 10° NNW
CZ-2D R/B 3.2 22:59:42 10° NNE 23:04:48 38° E 23:06:27 31° SE
SL-16 R/B 3.5 23:00:21 10° NNW 23:05:42 39° NE 23:11:01 10° ESE
SL-16 R/B 3.4 23:00:00 10° SE 23:05:53 47° ENE 23:11:51 10° NNW
H-2A R/B 3.1 23:01:47 10° N 23:05:28 38° NW 23:05:28 38° NW
Cosmos 1271 Rocket 4.2 23:05:26 10° N 23:08:38 30° ENE 23:08:52 30° ENE
Cosmos 521 Rocket 4.4 23:07:17 10° NW 23:13:45 64° SW 23:14:50 56° S
Cosmos 468 4.4 23:13:38 76° SW 23:14:03 86° WNW 23:19:25 10° NNE
Cosmos 1975 Rocket 4.5 23:10:34 10° NNW 23:13:04 27° NW 23:13:04 27° NW
Cosmos 1461 4.5 23:15:28 23° E 23:15:28 23° E 23:17:46 10° ENE
ATLAS CENTAUR R/B 3.7 23:11:41 10° NW 23:14:43 21° N 23:17:51 10° ENE
CZ-4C R/B 3.6 23:15:18 20° SE 23:16:06 21° ESE 23:20:10 10° ENE
Lacrosse 5 3.9 23:18:50 15° SE 23:19:05 15° SE 23:22:00 10° E
SeaSat 1 3.6 23:14:46 10° ESE 23:19:23 42° NE 23:24:01 10° NNW
Cosmos 2084 Rocket 4.5 23:19:50 35° NW 23:20:27 37° NNW 23:24:17 10° NE
Geosat 4.1 23:20:10 10° NE 23:25:10 63° ESE 23:25:50 57° SSE
Cosmos 1375 Rocket 4.5 23:19:51 10° NW 23:26:28 89° NE 23:32:57 10° SE
Cosmos 2341 Rocket 4.3 23:20:26 10° N 23:26:40 63° ENE 23:30:56 21° SSE
ADEOS II 3.1 23:22:46 10° NNE 23:27:42 39° E 23:29:51 27° SE
Cosmos 2184 Rocket 4.1 23:22:05 10° NNW 23:28:09 54° W 23:29:04 50° WSW
Cosmos 1980 Rocket 2.1 23:26:13 10° NW 23:31:44 59° WSW 23:31:54 59° SW
Cosmos 1818 4.4 23:29:00 10° NW 23:34:23 51° NNE 23:39:43 10° ESE
Helios 1A Rocket 4.4 23:37:35 24° NW 23:37:35 24° NW 23:39:23 10° NNW
Cosmos 2218 Rocket 4.5 23:29:34 10° N 23:35:53 61° ENE 23:41:36 12° SSE
Cosmos 2327 Rocket 4.3 23:31:53 10° NNW 23:38:03 82° W 23:40:19 41° S
Gbstr 26 Del rocket 4.3 23:37:52 44° S 23:38:47 47° SSE 23:44:13 10° E
CZ-2C R/B 2.9 23:40:58 46° W 23:40:58 46° W 23:45:52 10° NNW
IDEFIX/ARIANE 42P 2.5 23:36:30 10° NNE 23:41:46 85° WNW 23:42:56 56° SSW
Cosmos 2098 Rocket 3.0 23:46:28 51° NNE 23:46:28 51° NNE 23:49:10 10° NNE
ALOS 3.5 23:41:35 10° NNE 23:45:52 36° E 23:48:04 23° SE
Nadezhda 1 Rocket 3.9 23:46:12 45° SSW 23:48:15 80° WNW 23:54:32 10° N
Cosmos 1536 Rocket 3.8 23:44:25 10° NNW 23:48:26 52° WNW 23:48:26 52° WNW
USA 281 3.3 23:47:52 39° SSW 23:50:05 54° WSW 23:56:33 10° NW
Sich 1 Rocket 3.6 23:50:19 62° S 23:51:05 89° E 23:55:41 10° NNE
